Regional Weather Roundup
Issued by NWS

Home | Current Version | Previous Version | Graphics & Text | Print | Product List | Glossary On
Versions: 1 2 3 4 5 6 7 8 9 10 11 12 13 14 15 16 17 18 19 20 21 22 23 24 25 26 27 28 29 30 31 32 33 34 35 36 37 38 39 40 41 42 43 44 45 46 47 48 49 50
000
ASUS45 KABQ 281901
RWRNM
NEW MEXICO REGIONAL WEATHER ROUNDUP
NATIONAL WEATHER SERVICE ALBUQUERQUE NM
100 PM MDT TUE JUL 28 2015

NOTE: "FAIR" MEANS FEW OR NO CLOUDS BELOW 12,000 FEET AGL WITH NO
       SIGNIFICANT WEATHER OR OBSTRUCTIONS TO VISION.

      THIS PRODUCT IS RELEASED AS TWO VERSIONS.  ONE VERSION NEAR
      THE TOP OF THE HOUR CONTAINING PRELIMINARY DATA FROM ALBUQUERQUE
      AND OTHER STATIONS.  A FINAL VERSION WITH ADDITIONAL DATA IS
      ISSUED ABOUT 10 MINUTES AFTER THE HOUR.

NMZ501-503-504-510>518-282000-
NORTHWEST PLATEAU/NORTHCENTRAL MOUNTAINS

CITY           SKY/WX    TMP DP  RH WIND       PRES   REMARKS
FARMINGTON     MOSUNNY   86  26  11 W7        30.16F
SANTA FE       SUNNY     88  39  17 VRB6      30.20F
TAOS           MOSUNNY   82  37  20 SW8       30.28F

$$
NMZ402-403-502-505>509-282000-
WESTCENTRAL MOUNTAINS/SOUTHWEST MOUNTAINS

CITY           SKY/WX    TMP DP  RH WIND       PRES   REMARKS
GALLUP         PTSUNNY   84  34  16 NW10      30.26S
SILVER CITY      N/A     88  46  23 CALM      30.17F

$$
NMZ407-409-411-412-282000-
SOUTHERN DESERTS

CITY           SKY/WX    TMP DP  RH WIND       PRES   REMARKS
DEMING         MOSUNNY   93  52  24 E8        30.06F
ALAMOGORDO     MOSUNNY   91  54  27 CALM      30.05F
T OR C         CLOUDY    94  48  20 VRB3      30.09F

$$
NMZ519>523-282000-
CENTRAL VALLEYS/CENTRAL HIGHLANDS

CITY           SKY/WX    TMP DP  RH WIND       PRES   REMARKS
ALBUQUERQUE    PTSUNNY   88  46  23 NW7       30.15F
DOUBLE EAGLE   MOSUNNY   86  46  25 VRB6      30.20S
CLINES CORNERS MOSUNNY   83  44  25 VRB7      30.25F
BELEN          FAIR      91  40  16 N8        30.14F
SOCORRO        NOT AVBL

$$
NMZ524>526-539-540-282000-
SOUTHCENTRAL MOUNTAINS

CITY           SKY/WX    TMP DP  RH WIND       PRES   REMARKS
RUIDOSO          N/A    N/A N/A N/A MISG        N/A

$$
NMZ527>531-282000-
NORTHEAST HIGHLANDS/NORTHEAST PLAINS

CITY           SKY/WX    TMP DP  RH WIND       PRES   REMARKS
LAS VEGAS      PTSUNNY   83  44  25 SW13G22   30.24S
RATON          MOSUNNY   82  46  28 NE9       30.21F
CLAYTON        MOSUNNY   81  47  30 N15G23    30.15F

$$
NMZ532>537-282000-
EASTCENTRAL PLAINS

CITY           SKY/WX    TMP DP  RH WIND       PRES   REMARKS
TUCUMCARI      MOSUNNY   96  57  27 NE5       30.01S HX  95
CANNON AFB     NOT AVBL
CLOVIS AIRPORT SUNNY     93  61  33 SE10      30.06F

$$
NMZ028-029-538-282000-
SOUTHEAST PLAINS

CITY           SKY/WX    TMP DP  RH WIND       PRES   REMARKS
ROSWELL        SUNNY     99  55  23 E7        29.98F HX  97
ARTESIA        SUNNY     99  59  26 S6G14     29.97F HX  98
CARLSBAD       SUNNY    100  54  21 S6        29.95F HX  98
HOBBS          SUNNY     95  55  26 SE12      30.02F


$$


USA.gov is the U.S. government's official web portal to all federal, state and local government web resources and services.